Location: St. Louis
(38.6270°N, 90.1994°W)
Time: 13:39:45
(UTC-06:00)

Transit 2A - Pass Details

Date: 04 December 2021
Orbit: 591 x 967 km, 66.7° (Epoch: 17 January)

Event Time Altitude Azimuth Distance (km) Brightness Sun altitude
Rises 01:00:29 0° 243° (WSW) 3,300 - -67.9°
Reaches altitude 10° 01:03:12 10° 256° (WSW) 2,437 - -67.5°
Maximum altitude 01:07:55 26° 312° (NW) 1,654 - -66.8°
Drops below altitude 10° 01:13:00 10° 8° (N) 2,632 - -66.0°
Sets 01:16:04 0° 21° (NNE) 3,617 - -65.6°
